Simultaneous Nadir Overpasses (SNOs) Predictions

Prediction of SNOs between GOES-16 and LANDSAT-8 Satellite Orbit:

Table of predicted SNOs for the next 14.0 days since TLE Epoch: 11/23/2025
Index Date Time (GOES-16) GOES-16 Lat,Lon LANDSAT-8 Lat,Lon Distance(km) Time Diff (sec)
1 11/25/2025 05:07:20 -0.04,-104.64 0.09,-104.04 67.48 80
2 11/27/2025 04:55:08 -0.04,-104.63 0.70,-101.08 403.07 80
3 11/27/2025 17:16:24 0.04,-104.66 0.37,-106.24 179.58 80
4 11/29/2025 17:06:52 0.05,-104.65 -0.26,-103.28 156.27 80
5 11/30/2025 05:28:16 -0.04,-104.62 -0.84,-108.47 437.58 80
6 12/01/2025 16:54:40 0.05,-104.65 -0.90,-100.33 491.99 80
7 12/02/2025 05:16:03 -0.04,-104.61 -0.26,-105.50 102.12 80
8 12/04/2025 05:01:11 -0.04,-104.60 0.40,-102.55 233.07 80
9 12/04/2025 17:22:26 0.04,-104.62 0.71,-107.70 350.80 80
10 12/06/2025 17:10:13 0.04,-104.60 0.10,-104.74 15.77 80
